Regional Weather Roundup
Issued by NWS

Home | Current Version | Previous Version | Text Only | Print | Product List | Glossary On
Versions: 1 2 3 4 5 6 7 8 9 10 11 12 13 14 15 16 17 18 19 20 21 22 23 24 25 26 27 28 29 30 31 32 33 34 35 36 37 38 39 40 41 42 43 44 45 46 47 48 49 50
000
ASUS43 KLSX 300059
RWRMO

WEATHER SUMMARY FOR MISSOURI
NATIONAL WEATHER SERVICE SPRINGFIELD MO
800 PM CDT TUE JUL 29 2014

NOTE: "FAIR" INDICATES FEW OR NO CLOUDS BELOW 12,000 FEET WITH NO
       SIGNIFICANT WEATHER AND/OR OBSTRUCTIONS TO VISIBILITY.
       CURRENT SKY AND/OR WEATHER CONDITIONS ARE NOT AVAILABLE FOR
       CHILLICOTHE AND FARMINGTON.

MOZ001>031-035>038-043-044-053-054-300200-
...NORTHERN AND WESTERN MISSOURI...

CITY           SKY/WX    TMP DP  RH WIND       PRES   REMARKS
KANSAS CTY INT MOCLDY    76  60  57 N5        30.09F
KANSAS C DTWN  CLEAR     79  57  46 N3        30.07F
LEE`S SUMMIT   MOCLDY    77  57  50 NE5       30.09F
ST JOSEPH      PTCLDY    75  63  66 N5        30.09F
KIRKSVILLE     CLEAR     72  61  68 CALM      30.09F

$$
MOZ066>068-077>081-088>096-101>105-300200-
...SOUTHWEST MISSOURI...

CITY           SKY/WX    TMP DP  RH WIND       PRES   REMARKS
SPRINGFIELD    CLOUDY    79  56  45 NW3       30.08F
JOPLIN         MOCLDY    77  59  53 CALM      30.09F

$$
MOZ032>034-039>042-045>050-055>058-069>072-300200-
...CENTRAL MISSOURI...

CITY           SKY/WX    TMP DP  RH WIND       PRES   REMARKS
COLUMBIA       CLEAR     75  57  53 NE3       30.08F
JEFFERSON CITY CLEAR     77  54  44 NW3       30.06F
ROLLA          CLOUDY    76  53  44 N6        30.07F
SEDALIA        CLEAR     75  59  57 N3        30.09F
OSAGE BEACH      N/A     75  57  53 N3        30.07F

$$
MOZ051-052-059>065-300200-
...EAST CENTRAL MISSOURI...

CITY           SKY/WX    TMP DP  RH WIND       PRES   REMARKS
ST LOUIS INTL  PTCLDY    75  56  51 N6        30.08S
SPIRIT OF STL  CLEAR     75  56  51 NE3       30.06F
ST CHARLES     CLEAR     74  57  55 NW3       30.06F

$$
MOZ072>076-082>087-097>100-106>115-300200-
...SOUTH CENTRAL AND SOUTHEAST MISSOURI...

CITY           SKY/WX    TMP DP  RH WIND       PRES   REMARKS
CAPE GIRARDEAU CLEAR     69  62  78 S5        30.07F
FARMINGTON     CLEAR     73  54  49 E5        30.10F
POPLAR BLUFF   CLEAR     72  59  63 SE3       30.07F
WEST PLAINS    CLEAR     77  55  46 CALM      30.10F

$$



USA.gov is the U.S. government's official web portal to all federal, state and local government web resources and services.